[[[{"header":{"parameterUnit":"kt","parameterCategory":2,"dx":1,"dy":1,"la1":30.253999710083008,"la2":30.299108505249023,"lo1":-89.0895004272461,"lo2":-89.04439544677734,"nx":28,"ny":28,"refTime":"2022-09-29T21:00:00:Z","depth":"0","parameterNumber":2,"parameterNumberName":"U-component_of_CURRENTS"},"data":[0.4743,0.4699,0.4712,0.4606,0.4612,0.4511,0.4504,0.4506,0.4651,0.4804,0.5002,0.5281,0.5807,0.6057,0.5962,0.5765,0.5339,0.5043,0.5022,0.5684,0.5739,0.5791,0.5664,0.5273,0.5272,0.4087,0.4079,0.4072,0.4823,0.4841,0.4877,0.4891,0.4867,0.4971,0.5061,0.5026,0.5077,0.5383,0.5549,0.5857,0.595,0.6142,0.6206,0.5986,0.5703,0.5835,0.5528,0.5404,0.6134,0.6005,0.5681,0.5681,0.5681,0.5681,0.5681,0.5681,0.4978,0.4975,0.5044,0.5077,0.5142,0.5176,0.5166,0.5349,0.5486,0.5707,0.602,0.6214,0.6475,0.6671,0.6643,0.6539,0.6486,0.6398,0.6394,0.6187,0.5869,0.6522,0.6442,0.6445,0.6448,0.645,0.6452,0,0.5073,0.5124,0.5188,0.5233,0.5312,0.5381,0.554,0.5598,0.5931,0.6093,0.634,0.6517,0.6825,0.6869,0.7016,0.7049,0.6875,0.7066,0.704,0.6559,0.6188,0.5987,0.681,0.6813,0.6818,0.6822,0.6825,0.6827,0.518,0.5208,0.535,0.5382,0.5462,0.5584,0.5679,0.5942,0.6063,0.6437,0.6521,0.6813,0.6991,0.7249,0.7321,0.7421,0.7276,0.7194,0.7082,0.6942,0.6905,0.6667,0.6487,0.6883,0.6876,0.687,0.6865,0,0.5235,0.5338,0.5413,0.56,0.5653,0.5731,0.5949,0.6052,0.63,0.6482,0.6563,0.6909,0.7125,0.732,0.7528,0.7512,0.7408,0.7568,0.7281,0.7241,0.6981,0.6943,0.6684,0.6468,0.7436,0.7433,0.743,0,0.5357,0.5406,0.5565,0.5611,0.5703,0.5916,0.6041,0.6215,0.645,0.6578,0.6816,0.6947,0.7196,0.735,0.7418,0.748,0.7617,0.7428,0.7427,0.7228,0.7192,0.7111,0.7062,0.766,0.7659,0.7658,0.7658,0,0.5396,0.5551,0.562,0.5689,0.5904,0.5996,0.6122,0.6358,0.6463,0.6708,0.6798,0.7031,0.7144,0.7269,0.7372,0.7342,0.7558,0.7534,0.7408,0.7394,0.7199,0.7159,0.7212,0.7657,0.7656,0.7656,0.7656,0,0.5508,0.5575,0.5683,0.5849,0.5899,0.6001,0.6212,0.634,0.6567,0.6657,0.6833,0.6923,0.7107,0.7068,0.7288,0.7231,0.7266,0.7305,0.7311,0.7114,0.7056,0.6902,0.7008,0.6934,0.7324,0.7322,0.732,0,0.5501,0.5607,0.5712,0.5834,0.5903,0.6061,0.6184,0.634,0.6452,0.6585,0.672,0.6845,0.6861,0.6925,0.7021,0.7109,0.7177,0.7087,0.7192,0.7194,0.6999,0.715,0.6922,0.6984,0.7289,0.7292,0.7294,0,0.5494,0.5652,0.5664,0.572,0.5904,0.5981,0.6126,0.6272,0.6352,0.6478,0.6597,0.6756,0.6802,0.6855,0.6908,0.6981,0.7119,0.6951,0.6953,0.6955,0.7301,0.7126,0.713,0.7157,0.7161,0.7164,0.727,0,0.5567,0.5617,0.5659,0.5774,0.587,0.5954,0.6082,0.6164,0.6219,0.6295,0.6458,0.654,0.6659,0.6707,0.6712,0.6876,0.6843,0.6842,0.6755,0.6892,0.6918,0.6938,0.6671,0.6669,0.6667,0.6665,0,0,0.5516,0.5571,0.5643,0.572,0.5797,0.5881,0.5961,0.6032,0.6152,0.6209,0.6195,0.64,0.6432,0.6594,0.6651,0.6671,0.6695,0.6611,0.6826,0.6844,0.6861,0.6893,0.6914,0.6662,0.6661,0.6661,0.666,0,0.5536,0.5574,0.561,0.5696,0.5814,0.5877,0.5903,0.6016,0.6058,0.6157,0.6196,0.6294,0.6367,0.6446,0.6488,0.6634,0.6595,0.6658,0.6707,0.6808,0.6828,0.6846,0.6881,0.6902,0.6655,0.6656,0.6656,0,0.5529,0.5587,0.5608,0.571,0.5779,0.5864,0.5874,0.5964,0.6031,0.6025,0.6109,0.6166,0.622,0.6326,0.6366,0.6319,0.6494,0.6429,0.6441,0.6417,0.6515,0.654,0.6562,0.6274,0.6273,0.6272,0,0,0.5541,0.5577,0.5683,0.5722,0.5767,0.585,0.5896,0.5942,0.6011,0.6031,0.6059,0.6107,0.6182,0.6203,0.6259,0.6327,0.6328,0.6382,0.64,0.6415,0.64,0.6502,0.6526,0.6267,0.6267,0.6266,0,0,0.5555,0.5653,0.567,0.5714,0.5805,0.5907,0.5943,0.597,0.6023,0.6023,0.603,0.6037,0.6132,0.6123,0.6061,0.6232,0.616,0.6172,0.6226,0.6248,0.6266,0.6235,0.6008,0,0,0,0,0,0.5628,0.5644,0.5659,0.5679,0.5788,0.5898,0.5915,0.5966,0.5955,0.5983,0.6022,0.5982,0.6118,0.6062,0.6065,0.6132,0.6203,0.6215,0.6225,0.6313,0.6337,0.6357,0,0,0,0,0,0,0.5637,0.5658,0.566,0.5758,0.5785,0.5895,0.5889,0.5903,0.5954,0.5955,0.5981,0.5983,0.5988,0.6057,0.6061,0.6125,0.6006,0.6208,0.6217,0.6226,0.6322,0.6341,0.6358,0,0,0,0,0,0.5644,0.5661,0.5815,0.5759,0.5782,0.5866,0.5887,0.5898,0.5928,0.5964,0.5968,0.5967,0.5988,0.5992,0.6059,0.6125,0.6004,0.6005,0.6214,0.6221,0.6228,0.6331,0,0,0,0,0,0,0.565,0.5662,0.5821,0.5832,0.5749,0.5862,0.5876,0.5894,0.5931,0.594,0.5948,0.5949,0.5989,0.5991,0.5994,0.6128,0.6001,0.6003,0.6004,0.622,0.6225,0.6231,0,0,0,0,0,0,0.5654,0.5669,0.5826,0.581,0.5819,0.5857,0.587,0.5889,0.5928,0.5909,0.5914,0.5948,0.5969,0.5991,0.5993,0.6023,0.5999,0.6001,0.6002,0.6003,0.6224,0.6229,0,0,0,0,0,0,0.5662,0.5676,0.5807,0.5814,0.5821,0.5939,0.5872,0.5963,0.5969,0.5904,0.5967,0.5966,0.5967,0.5971,0.5993,0.6022,0.6023,0.5999,0.6,0.6001,0.6002,0,0,0,0,0,0,0,0.5669,0.5559,0.5769,0.5817,0.5823,0.5936,0.5938,0.5939,0.5969,0.5968,0.5967,0.5966,0.5991,0.5992,0.5994,0.6021,0,0,0.5999,0.6,0,0,0,0,0,0,0,0,0.5556,0.5558,0.577,0.5773,0.5776,0.5936,0.5938,0.5939,0.5969,0.5968,0.5967,0.5967,0.5991,0.5992,0.5994,0,0,0,0,0,0,0,0,0,0,0,0,0,0,0,0.577,0.5773,0,0.5936,0.5937,0.5939,0.5969,0.5968,0.5967,0.5967,0.5991,0.5992,0.5994,0,0,0,0,0,0,0,0,0,0,0,0,0,0,0,0,0,0,0,0,0,0,0,0,0,0,0,0,0,0,0,0,0,0,0,0,0,0,0,0,0,0,0,0,0,0,0,0,0,0,0,0,0,0,0,0,0,0,0,0,0,0,0,0,0,0,0,0,0]}],[{"header":{"parameterUnit":"kt","parameterCategory":2,"dx":1,"dy":1,"la1":30.253999710083008,"la2":30.299108505249023,"lo1":-89.0895004272461,"lo2":-89.04439544677734,"nx":28,"ny":28,"refTime":"2022-09-29T21:00:00:Z","depth":"0","parameterNumber":3,"parameterNumberName":"V-component_of_CURRENTS"},"data":[0.1204,0.1382,0.147,0.1801,0.1964,0.2245,0.242,0.2693,0.2893,0.3089,0.3094,0.3006,0.227,-0.0094,-0.1761,-0.2155,-0.2663,-0.2789,-0.3066,-0.253,-0.2482,-0.2436,-0.2504,-0.2914,-0.2916,-0.3787,-0.3796,-0.3803,0.1141,0.1248,0.1425,0.1643,0.1845,0.1911,0.2197,0.2383,0.2673,0.2838,0.2915,0.2549,0.1639,0.0697,-0.0622,-0.1353,-0.1639,-0.178,-0.2023,-0.2103,-0.1261,-0.128,-0.1436,-0.1435,-0.1435,-0.1435,-0.1434,-0.1434,0.1029,0.1123,0.1266,0.1449,0.1613,0.183,0.1992,0.219,0.2399,0.2564,0.2489,0.2467,0.173,0.0772,0.0225,-0.0759,-0.0809,-0.1077,-0.1297,-0.1424,-0.159,-0.0624,-0.0693,-0.0693,-0.0694,-0.0694,-0.0694,0,0.0935,0.0988,0.109,0.1279,0.1422,0.1579,0.1742,0.1866,0.1926,0.202,0.2115,0.2054,0.1529,0.1034,0.0334,-0.0043,-0.0788,-0.0554,-0.0912,-0.1226,-0.1382,-0.1576,-0.0641,-0.0632,-0.0632,-0.0632,-0.0632,-0.0632,0.0812,0.0891,0.1028,0.1121,0.1174,0.1311,0.1418,0.1433,0.1536,0.1566,0.164,0.1464,0.1372,0.0813,0.0268,-0.0228,-0.0591,-0.0539,-0.0653,-0.0964,-0.1252,-0.1413,-0.1528,-0.0633,-0.0633,-0.0633,-0.0633,0,0.0751,0.0778,0.0903,0.0989,0.1025,0.1124,0.1228,0.1319,0.1274,0.1362,0.135,0.1162,0.094,0.0562,0.0189,-0.0102,-0.0601,-0.0517,-0.0437,-0.0502,-0.0986,-0.1193,-0.1503,-0.1652,-0.0695,-0.0695,-0.0696,0,0.0641,0.0722,0.0775,0.083,0.0964,0.0929,0.1052,0.1019,0.1018,0.109,0.0849,0.0867,0.0482,0.0315,0.0008,-0.0278,-0.0256,-0.0565,-0.0641,-0.0614,-0.0615,-0.0962,-0.1178,-0.0593,-0.0592,-0.0592,-0.0592,0,0.0531,0.0599,0.0691,0.0699,0.0726,0.0782,0.0792,0.075,0.078,0.0687,0.0685,0.0507,0.0439,0.0201,-0.0101,-0.0158,-0.0344,-0.0472,-0.0634,-0.0638,-0.0673,-0.068,-0.0923,-0.0591,-0.0591,-0.0591,-0.0591,0,0.0411,0.0458,0.0548,0.0603,0.061,0.0636,0.0659,0.0649,0.0578,0.051,0.0413,0.0273,0.0165,0.0012,-0.0213,-0.0202,-0.0371,-0.0519,-0.0527,-0.0595,-0.0731,-0.0714,-0.0651,-0.0988,-0.0658,-0.0658,-0.0658,0,0.0316,0.0396,0.0357,0.0427,0.0456,0.0371,0.039,0.0338,0.0258,0.0232,0.0075,0.0005,-0.0153,-0.0203,-0.0283,-0.0474,-0.0513,-0.0499,-0.0709,-0.0713,-0.0709,-0.0645,-0.0616,-0.0653,-0.0659,-0.0659,-0.0659,0,0.0227,0.023,0.0239,0.027,0.0191,0.0178,0.0175,0.0131,0.0154,0.0011,0.0016,-0.0159,-0.0251,-0.0321,-0.0458,-0.0517,-0.0522,-0.063,-0.0638,-0.0615,-0.0625,-0.0647,-0.0648,-0.0617,-0.0616,-0.0615,-0.066,0,0.0135,0.0155,0.0169,0.0149,0.0112,0.0103,0.0007,-0.0017,-0.0094,-0.0175,-0.0249,-0.0413,-0.0514,-0.0578,-0.0674,-0.0684,-0.0731,-0.0816,-0.0847,-0.0796,-0.0829,-0.0827,-0.0892,-0.0895,-0.0898,-0.09,0,0,0.0053,0.0073,-0.0004,0.0007,-0.0018,-0.0149,-0.0136,-0.0197,-0.033,-0.0346,-0.0417,-0.0606,-0.0715,-0.0767,-0.0773,-0.0849,-0.0891,-0.0825,-0.0835,-0.0827,-0.0821,-0.0847,-0.0842,-0.0904,-0.0905,-0.0906,-0.0907,0,0.0011,-0.0025,0.0005,-0.0044,-0.0124,-0.0197,-0.02,-0.0322,-0.0364,-0.0433,-0.0548,-0.0631,-0.0767,-0.0841,-0.0899,-0.0882,-0.0954,-0.0926,-0.0796,-0.0856,-0.0844,-0.0835,-0.0858,-0.0852,-0.0913,-0.0913,-0.0912,0,-0.0063,-0.0104,-0.0106,-0.018,-0.0246,-0.027,-0.0376,-0.0424,-0.044,-0.0597,-0.0636,-0.0748,-0.0873,-0.0927,-0.0958,-0.098,-0.1004,-0.1018,-0.1008,-0.0964,-0.1028,-0.1016,-0.1005,-0.114,-0.114,-0.114,0,0,-0.0094,-0.0087,-0.02,-0.0202,-0.0231,-0.0351,-0.0392,-0.0457,-0.0553,-0.0589,-0.0682,-0.0781,-0.0866,-0.0904,-0.0992,-0.1032,-0.1072,-0.1037,-0.1026,-0.1017,-0.0969,-0.1029,-0.1018,-0.114,-0.114,-0.114,0,0,-0.0127,-0.0212,-0.0251,-0.0255,-0.0336,-0.0471,-0.048,-0.0548,-0.063,-0.0634,-0.0757,-0.0785,-0.0844,-0.0916,-0.0901,-0.0989,-0.1045,-0.105,-0.0912,-0.09,-0.089,-0.0807,-0.0976,0,0,0,0,0,-0.0223,-0.0197,-0.023,-0.0247,-0.0367,-0.0449,-0.0471,-0.0565,-0.0599,-0.0603,-0.0701,-0.0751,-0.0939,-0.0928,-0.0951,-0.0928,-0.1136,-0.1136,-0.1137,-0.0972,-0.0959,-0.0947,0,0,0,0,0,0,-0.023,-0.0247,-0.0233,-0.0358,-0.0388,-0.045,-0.0525,-0.0551,-0.06,-0.061,-0.0734,-0.0755,-0.0837,-0.0921,-0.0941,-0.0917,-0.0969,-0.1136,-0.1136,-0.1137,-0.0967,-0.0957,-0.0947,0,0,0,0,0,-0.0237,-0.0251,-0.0405,-0.0361,-0.0387,-0.0513,-0.0525,-0.0547,-0.0585,-0.0715,-0.0738,-0.065,-0.0834,-0.0857,-0.0933,-0.0906,-0.0956,-0.0963,-0.1136,-0.1137,-0.1137,-0.0962,0,0,0,0,0,0,-0.0242,-0.0281,-0.0414,-0.0428,-0.0362,-0.0512,-0.0533,-0.0543,-0.0688,-0.0711,-0.0637,-0.0643,-0.0833,-0.0851,-0.0868,-0.0896,-0.0946,-0.0953,-0.0957,-0.1137,-0.1137,-0.1137,0,0,0,0,0,0,-0.0275,-0.0291,-0.0421,-0.0416,-0.043,-0.051,-0.0528,-0.0598,-0.0688,-0.0602,-0.0612,-0.0638,-0.0806,-0.0846,-0.086,-0.0966,-0.0938,-0.0945,-0.0949,-0.0952,-0.1137,-0.1137,0,0,0,0,0,0,-0.0285,-0.0299,-0.0413,-0.0424,-0.0436,-0.0596,-0.0575,-0.0689,-0.0689,-0.0594,-0.0691,-0.0692,-0.0799,-0.0815,-0.0854,-0.0954,-0.0963,-0.0938,-0.0943,-0.0946,-0.0948,0,0,0,0,0,0,0,-0.0293,-0.0162,-0.0334,-0.043,-0.0441,-0.0555,-0.0558,-0.0562,-0.0689,-0.069,-0.0691,-0.0692,-0.0899,-0.0906,-0.0914,-0.0944,0,0,-0.0937,-0.0941,0,0,0,0,0,0,0,0,-0.016,-0.0162,-0.0334,-0.0337,-0.034,-0.0555,-0.0558,-0.0561,-0.0689,-0.069,-0.0691,-0.0691,-0.0901,-0.0907,-0.0913,0,0,0,0,0,0,0,0,0,0,0,0,0,0,0,-0.0334,-0.0337,0,-0.0556,-0.0558,-0.0561,-0.0689,-0.069,-0.069,-0.0691,-0.0903,-0.0908,-0.0913,0,0,0,0,0,0,0,0,0,0,0,0,0,0,0,0,0,0,0,0,0,0,0,0,0,0,0,0,0,0,0,0,0,0,0,0,0,0,0,0,0,0,0,0,0,0,0,0,0,0,0,0,0,0,0,0,0,0,0,0,0,0,0,0,0,0,0,0,0]}]],[[{"header":{"parameterUnit":"kt","parameterCategory":2,"dx":1,"dy":1,"la1":30.253999710083008,"la2":30.299108505249023,"lo1":-89.0895004272461,"lo2":-89.04439544677734,"nx":28,"ny":28,"refTime":"2022-09-29T21:00:00:Z","depth":"2","parameterNumber":2,"parameterNumberName":"U-component_of_CURRENTS"},"data":[0.4554,0.451,0.4519,0.4414,0.4429,0.4322,0.431,0.424,0.428,0.42,0.4167,0.4488,0.4651,0.3954,0.3888,0.359,0.3909,0.3464,0.4937,0.4869,0.4947,0.5173,0.4936,0,0,0,0,0,0.4628,0.4649,0.4685,0.4701,0.4674,0.4787,0.4862,0.4792,0.4812,0.5003,0.5111,0.4755,0.4684,0.4773,0.4502,0.4533,0.4475,0.4338,0.4193,0.4293,0.438,0.4149,0.3416,0.341,0.3404,0.3398,0,0,0.4773,0.4772,0.4839,0.4876,0.4945,0.4975,0.4965,0.5123,0.5243,0.5403,0.5687,0.5724,0.581,0.5713,0.5569,0.5476,0.5929,0.5658,0.5687,0.5728,0.5571,0.5421,0.5213,0.5219,0.5225,0.523,0.5235,0,0.4855,0.4909,0.4966,0.5019,0.5099,0.5167,0.5324,0.5376,0.5684,0.5832,0.6042,0.6198,0.6423,0.6271,0.6364,0.6334,0.6384,0.621,0.7031,0.5884,0.5732,0.5728,0.5759,0.5615,0.5624,0.5631,0.5636,0.564,0.4951,0.498,0.5116,0.5148,0.5224,0.5353,0.5443,0.5692,0.5807,0.6155,0.6229,0.6505,0.6646,0.6848,0.686,0.6922,0.7061,0.6423,0.6294,0.6909,0.6908,0.69,0.6891,0.574,0.5727,0.5717,0.5709,0,0.5001,0.5093,0.5162,0.5331,0.5382,0.5467,0.5677,0.5777,0.6018,0.6196,0.6286,0.6597,0.6788,0.6949,0.7127,0.7093,0.7153,0.7113,0.6532,0.6467,0.6923,0.6909,0.6998,0.6993,0.6989,0.6986,0.6983,0,0.5104,0.5151,0.5297,0.5334,0.5423,0.5612,0.5743,0.5904,0.6129,0.6254,0.6498,0.6609,0.6841,0.6971,0.7028,0.706,0.7191,0.7003,0.701,0.6556,0.6501,0.7032,0.7008,0.723,0.723,0.7229,0.7228,0,0.5143,0.5272,0.5339,0.5393,0.557,0.5664,0.5782,0.6008,0.6119,0.6369,0.646,0.6672,0.6783,0.6894,0.6982,0.6968,0.7134,0.7134,0.6998,0.6985,0.6501,0.6438,0.7228,0.7227,0.7227,0.7227,0.7227,0,0.5231,0.5288,0.5384,0.5524,0.5566,0.5651,0.5851,0.5976,0.6197,0.6292,0.6459,0.6557,0.673,0.669,0.6885,0.6847,0.6884,0.6916,0.6922,0.6686,0.6648,0.6244,0.6281,0.6948,0.6946,0.6944,0.6942,0,0.5227,0.5314,0.5401,0.5502,0.5557,0.5691,0.5804,0.5953,0.6073,0.6215,0.6334,0.6468,0.6475,0.6555,0.6639,0.6733,0.6794,0.6716,0.6787,0.6786,0.6628,0.6775,0.6253,0.6275,0.6916,0.6918,0.692,0,0.522,0.5347,0.5358,0.5404,0.5549,0.5611,0.5749,0.5887,0.5974,0.6101,0.623,0.637,0.6427,0.6456,0.6514,0.658,0.6744,0.6562,0.6563,0.6595,0.6927,0.6758,0.6759,0.6804,0.6808,0.6811,0.69,0,0.527,0.5316,0.5349,0.5437,0.5519,0.5586,0.5695,0.5786,0.5855,0.5933,0.6098,0.6164,0.6265,0.6322,0.6319,0.6482,0.6451,0.6449,0.6362,0.649,0.6507,0.6524,0.6265,0.6262,0.6259,0.6256,0,0,0.5229,0.5272,0.533,0.5391,0.5454,0.552,0.5588,0.5657,0.5773,0.5842,0.5831,0.6015,0.6047,0.6188,0.6244,0.626,0.6282,0.6215,0.6416,0.6434,0.6451,0.6475,0.6495,0.6251,0.6249,0.6248,0.6247,0,0.5234,0.5268,0.5303,0.5367,0.5462,0.551,0.5536,0.564,0.5695,0.5789,0.5828,0.5921,0.5988,0.605,0.6077,0.6212,0.6188,0.6242,0.6291,0.6388,0.6411,0.643,0.6459,0.6479,0.624,0.624,0.624,0,0.5221,0.5264,0.5284,0.5364,0.542,0.5485,0.55,0.558,0.5645,0.5634,0.5737,0.5791,0.581,0.5916,0.5954,0.59,0.6077,0.6016,0.6031,0.5978,0.6071,0.6097,0.612,0.5824,0.5823,0.5822,0,0,0.5224,0.5256,0.5333,0.5369,0.5405,0.5476,0.552,0.5559,0.5615,0.5639,0.5679,0.5714,0.5775,0.5797,0.5839,0.5909,0.5888,0.5972,0.5991,0.6008,0.5967,0.6061,0.6086,0.5819,0.5819,0.5819,0,0,0.5228,0.5299,0.5314,0.5353,0.5424,0.5503,0.5543,0.5574,0.5626,0.5633,0.564,0.5647,0.5745,0.5713,0.5676,0.583,0.5739,0.5747,0.5876,0.5899,0.5918,0.5864,0.5639,0,0,0,0,0,0.527,0.529,0.5302,0.5318,0.5409,0.5494,0.551,0.5559,0.5564,0.5594,0.5626,0.5604,0.5702,0.5669,0.5675,0.5772,0.5782,0.5789,0.5795,0.5977,0.6002,0.6024,0,0,0,0,0,0,0.5276,0.5292,0.5304,0.5376,0.5399,0.5492,0.5488,0.5502,0.5561,0.5564,0.5601,0.5604,0.5604,0.5665,0.5671,0.5764,0.5636,0.5785,0.579,0.5795,0.5986,0.6006,0.6024,0,0,0,0,0,0.5282,0.5295,0.5418,0.5378,0.5397,0.5474,0.5486,0.5498,0.5543,0.5569,0.5575,0.5581,0.5605,0.561,0.5668,0.5763,0.5632,0.5635,0.5788,0.5793,0.5797,0.5996,0,0,0,0,0,0,0.5286,0.5304,0.5424,0.5434,0.5368,0.5471,0.5484,0.5495,0.5544,0.5553,0.5546,0.5547,0.5605,0.5609,0.5614,0.5766,0.5629,0.5631,0.5633,0.5792,0.5795,0.5798,0,0,0,0,0,0,0.5299,0.5311,0.5429,0.5413,0.5421,0.5468,0.5479,0.5505,0.5542,0.5515,0.552,0.5545,0.5583,0.5609,0.5612,0.5653,0.5626,0.5628,0.563,0.5631,0.5794,0.5797,0,0,0,0,0,0,0.5306,0.5317,0.541,0.5417,0.5424,0.5533,0.549,0.5566,0.5571,0.551,0.5569,0.5568,0.5581,0.5586,0.5611,0.565,0.5652,0.5626,0.5628,0.5629,0.5629,0,0,0,0,0,0,0,0.5312,0.5216,0.5373,0.5419,0.5426,0.5527,0.5529,0.5531,0.557,0.557,0.5569,0.5568,0.5613,0.5616,0.5618,0.5648,0,0,0.5626,0.5627,0,0,0,0,0,0,0,0,0.5214,0.5216,0.5373,0.5375,0.5378,0.5527,0.5529,0.553,0.557,0.557,0.5569,0.5569,0.5614,0.5616,0.5618,0,0,0,0,0,0,0,0,0,0,0,0,0,0,0,0.5373,0.5375,0,0.5527,0.5529,0.553,0.557,0.557,0.5569,0.5569,0.5615,0.5616,0.5618,0,0,0,0,0,0,0,0,0,0,0,0,0,0,0,0,0,0,0,0,0,0,0,0,0,0,0,0,0,0,0,0,0,0,0,0,0,0,0,0,0,0,0,0,0,0,0,0,0,0,0,0,0,0,0,0,0,0,0,0,0,0,0,0,0,0,0,0,0]}],[{"header":{"parameterUnit":"kt","parameterCategory":2,"dx":1,"dy":1,"la1":30.253999710083008,"la2":30.299108505249023,"lo1":-89.0895004272461,"lo2":-89.04439544677734,"nx":28,"ny":28,"refTime":"2022-09-29T21:00:00:Z","depth":"2","parameterNumber":3,"parameterNumberName":"V-component_of_CURRENTS"},"data":[0.1359,0.1529,0.1614,0.193,0.2087,0.2357,0.2522,0.2742,0.286,0.2937,0.2847,0.2668,0.19,0.1228,0.0501,-0.0033,-0.0152,-0.0142,-0.0031,0.0132,0.0142,-0.0372,-0.032,0,0,0,0,0,0.1302,0.1404,0.1574,0.1786,0.198,0.2049,0.2323,0.2484,0.2733,0.2801,0.2833,0.2297,0.1728,0.1068,0.0147,-0.0391,-0.044,-0.057,-0.0511,-0.0505,-0.0502,-0.0478,-0.0549,-0.0551,-0.0553,-0.0555,0,0,0.1199,0.1289,0.1427,0.1604,0.1764,0.1975,0.2133,0.2315,0.2504,0.2618,0.2537,0.2404,0.1851,0.0967,0.0382,-0.0248,-0.0228,-0.0461,-0.0458,-0.0455,-0.0429,-0.039,-0.0486,-0.0487,-0.0488,-0.0488,-0.0488,0,0.1114,0.1164,0.1266,0.1447,0.1586,0.1747,0.1906,0.2023,0.2087,0.2163,0.2226,0.2144,0.1621,0.1125,0.0445,0.0107,-0.0254,-0.0342,-0.0332,-0.0332,-0.0287,-0.0356,-0.0355,-0.0371,-0.0371,-0.0371,-0.0371,-0.0371,0.1,0.1077,0.1215,0.1306,0.136,0.1497,0.1606,0.1633,0.1731,0.1749,0.1816,0.1623,0.1514,0.0957,0.0439,-0.0048,-0.0135,-0.0326,-0.0406,-0.0377,-0.045,-0.0446,-0.0442,-0.037,-0.0371,-0.0371,-0.0371,0,0.0945,0.0976,0.1102,0.1197,0.1235,0.1331,0.1446,0.1534,0.1494,0.1573,0.1558,0.1375,0.1141,0.0782,0.0413,0.0139,-0.0167,-0.0278,-0.0178,-0.0242,-0.0435,-0.0433,-0.0474,-0.0476,-0.0477,-0.0479,-0.048,0,0.0848,0.093,0.0989,0.1048,0.1182,0.1167,0.1286,0.1263,0.1267,0.1333,0.1106,0.1118,0.0757,0.0584,0.0288,-0.0006,0.0017,-0.0276,-0.0354,-0.0304,-0.0304,-0.0335,-0.034,-0.0289,-0.0288,-0.0288,-0.0287,0,0.0745,0.0826,0.0917,0.0935,0.0986,0.104,0.1061,0.1028,0.106,0.0969,0.0964,0.0795,0.0729,0.0494,0.0199,0.0153,-0.005,-0.0159,-0.0335,-0.034,-0.0341,-0.0346,-0.0286,-0.0286,-0.0286,-0.0286,-0.0286,0,0.0644,0.0695,0.079,0.0861,0.0874,0.091,0.0943,0.0944,0.088,0.0816,0.0724,0.0592,0.0491,0.0353,0.0127,0.0142,-0.0031,-0.0171,-0.018,-0.0237,-0.0364,-0.0387,-0.0336,-0.0324,-0.0324,-0.0324,-0.0324,0,0.0551,0.0638,0.0614,0.0697,0.0734,0.0669,0.0699,0.0659,0.0584,0.0559,0.0422,0.0359,0.0217,0.0167,0.009,-0.0094,-0.0142,-0.0113,-0.0324,-0.0328,-0.0367,-0.0315,-0.0264,-0.0332,-0.032,-0.0321,-0.0321,0,0.0468,0.0489,0.0499,0.0536,0.0484,0.0484,0.049,0.046,0.048,0.0354,0.0358,0.0216,0.0121,0.0074,-0.0048,-0.0104,-0.0144,-0.0213,-0.0219,-0.0247,-0.0274,-0.0309,-0.0315,-0.0238,-0.0238,-0.0238,-0.0319,0,0.0394,0.0417,0.0434,0.0432,0.0409,0.041,0.0337,0.0316,0.0242,0.017,0.0107,-0.0027,-0.0104,-0.0162,-0.0236,-0.0252,-0.03,-0.0372,-0.041,-0.0352,-0.0398,-0.0399,-0.0412,-0.0414,-0.0415,-0.0417,0,0,0.0311,0.0339,0.0276,0.0297,0.0283,0.0169,0.0191,0.0141,0.0031,0.0013,-0.0049,-0.0199,-0.0294,-0.0325,-0.0321,-0.0381,-0.0429,-0.0374,-0.0377,-0.0372,-0.0368,-0.0407,-0.0407,-0.042,-0.042,-0.0421,-0.0421,0,0.0279,0.025,0.028,0.0248,0.0186,0.0128,0.0126,0.0024,-0.0016,-0.0065,-0.0168,-0.0237,-0.0344,-0.04,-0.0441,-0.0404,-0.0499,-0.0443,-0.0325,-0.039,-0.0383,-0.0377,-0.0414,-0.0412,-0.0425,-0.0425,-0.0425,0,0.0214,0.0184,0.0185,0.0132,0.0079,0.007,-0.0029,-0.0068,-0.0075,-0.0214,-0.0249,-0.0348,-0.0435,-0.0476,-0.05,-0.0516,-0.0545,-0.0547,-0.0539,-0.0494,-0.0563,-0.0554,-0.0547,-0.065,-0.065,-0.0651,0,0,0.0189,0.0199,0.0113,0.0115,0.0093,-0.0007,-0.0042,-0.0098,-0.0172,-0.0203,-0.0292,-0.0368,-0.0434,-0.0465,-0.0536,-0.0564,-0.0602,-0.0571,-0.0561,-0.0552,-0.0503,-0.0568,-0.0559,-0.0652,-0.0652,-0.0652,0,0,0.0163,0.01,0.0066,0.0067,0.0007,-0.0102,-0.0111,-0.0172,-0.0237,-0.0246,-0.0357,-0.0382,-0.0432,-0.0481,-0.0491,-0.0548,-0.0594,-0.0594,-0.0514,-0.0502,-0.0492,-0.0417,-0.0582,0,0,0,0,0,0.0089,0.0113,0.0084,0.0071,-0.0025,-0.0083,-0.0101,-0.0183,-0.0223,-0.0222,-0.0301,-0.0367,-0.05,-0.0511,-0.0534,-0.0532,-0.0674,-0.067,-0.0666,-0.0573,-0.0559,-0.0547,0,0,0,0,0,0,0.0083,0.0071,0.0081,-0.0018,-0.0043,-0.0084,-0.0155,-0.0178,-0.0223,-0.0232,-0.035,-0.0371,-0.0445,-0.0506,-0.0526,-0.0522,-0.0576,-0.0672,-0.0669,-0.0666,-0.0568,-0.0557,-0.0547,0,0,0,0,0,0.0078,0.0068,-0.0051,-0.0022,-0.0042,-0.0151,-0.0156,-0.0175,-0.0212,-0.0329,-0.0351,-0.0269,-0.0442,-0.0465,-0.0518,-0.051,-0.0563,-0.057,-0.067,-0.0668,-0.0665,-0.0562,0,0,0,0,0,0,0.0074,0.0039,-0.0059,-0.0071,-0.0023,-0.015,-0.0168,-0.0172,-0.0307,-0.0329,-0.0253,-0.0259,-0.0441,-0.0459,-0.0475,-0.0501,-0.0553,-0.056,-0.0564,-0.0668,-0.0666,-0.0664,0,0,0,0,0,0,0.0043,0.0031,-0.0065,-0.0062,-0.0074,-0.015,-0.0165,-0.0233,-0.0308,-0.0224,-0.0233,-0.0254,-0.0419,-0.0454,-0.0468,-0.0572,-0.0545,-0.0551,-0.0556,-0.0559,-0.0667,-0.0665,0,0,0,0,0,0,0.0035,0.0024,-0.0059,-0.0068,-0.0079,-0.0217,-0.0214,-0.0309,-0.0299,-0.0217,-0.0301,-0.0302,-0.0413,-0.0428,-0.0462,-0.056,-0.0569,-0.0545,-0.0549,-0.0553,-0.0555,0,0,0,0,0,0,0,0.0029,0.0136,0.0011,-0.0074,-0.0084,-0.0179,-0.0182,-0.0186,-0.0299,-0.03,-0.0301,-0.0302,-0.0506,-0.0514,-0.0521,-0.0551,0,0,-0.0544,-0.0547,0,0,0,0,0,0,0,0,0.0137,0.0137,0.001,0.0008,0.0005,-0.018,-0.0182,-0.0185,-0.0299,-0.03,-0.0301,-0.0301,-0.0508,-0.0514,-0.052,0,0,0,0,0,0,0,0,0,0,0,0,0,0,0,0.001,0.0008,0,-0.018,-0.0182,-0.0184,-0.0299,-0.03,-0.0301,-0.0301,-0.051,-0.0515,-0.052,0,0,0,0,0,0,0,0,0,0,0,0,0,0,0,0,0,0,0,0,0,0,0,0,0,0,0,0,0,0,0,0,0,0,0,0,0,0,0,0,0,0,0,0,0,0,0,0,0,0,0,0,0,0,0,0,0,0,0,0,0,0,0,0,0,0,0,0,0]}]],[[{"header":{"parameterUnit":"kt","parameterCategory":2,"dx":1,"dy":1,"la1":30.253999710083008,"la2":30.299108505249023,"lo1":-89.0895004272461,"lo2":-89.04439544677734,"nx":28,"ny":28,"refTime":"2022-09-29T21:00:00:Z","depth":"4","parameterNumber":2,"parameterNumberName":"U-component_of_CURRENTS"},"data":[0.263,0.2718,0.274,0.2708,0.2728,0.2845,0.2959,0.3137,0.3106,0.3387,0.345,0.3663,0.3803,0.3996,0.3938,0.3979,0.3889,0.4379,0.4368,0.4386,0.4413,0.4436,0.4259,0,0,0,0,0,0.271,0.2723,0.2819,0.2907,0.3054,0.3138,0.3336,0.3451,0.3707,0.365,0.379,0.3907,0.3975,0.4119,0.4013,0.4355,0.4408,0.4211,0.4206,0.4403,0.4432,0.4249,0,0,0,0,0,0,0.2822,0.2858,0.3013,0.3119,0.3279,0.3316,0.3429,0.3524,0.3632,0.3956,0.3986,0.4242,0.448,0.4442,0.4497,0.4467,0.4376,0.418,0.4219,0.4249,0.4067,0.3924,0.3751,0,0,0,0,0,0.29,0.3031,0.3128,0.3286,0.3426,0.3528,0.3702,0.3737,0.3984,0.4234,0.4303,0.437,0.4521,0.458,0.4636,0.4631,0.4793,0.4726,0.4739,0.4585,0.4518,0.4468,0.4469,0.4544,0.4547,0.455,0.4551,0,0.3025,0.3082,0.3326,0.3402,0.3515,0.368,0.3776,0.4001,0.4095,0.4405,0.4451,0.4705,0.4832,0.4759,0.4906,0.4912,0.4859,0.4805,0.4642,0.4565,0.4509,0.4502,0.4493,0.4575,0.4573,0.4571,0.4569,0,0.3088,0.3225,0.3336,0.354,0.3615,0.3706,0.3929,0.4019,0.4235,0.4396,0.4483,0.4724,0.4866,0.4982,0.5092,0.4948,0.4934,0.4881,0.511,0.5066,0.4546,0.4528,0.4614,0.4605,0.4598,0.4592,0.4587,0,0.3206,0.3284,0.3487,0.3527,0.3645,0.3765,0.3916,0.4041,0.423,0.4341,0.4539,0.4646,0.4804,0.492,0.4936,0.4892,0.5071,0.4745,0.4695,0.4878,0.486,0.4862,0.484,0.5042,0.5041,0.504,0.5039,0,0.326,0.3397,0.3492,0.3529,0.3664,0.3774,0.3862,0.4035,0.4132,0.4352,0.446,0.4622,0.4732,0.4804,0.4873,0.4826,0.5002,0.4911,0.4691,0.4672,0.4848,0.4827,0.5038,0.5038,0.5038,0.5037,0.5037,0,0.3331,0.3401,0.3502,0.3622,0.3652,0.3717,0.3883,0.3959,0.4139,0.4238,0.4404,0.4467,0.4623,0.458,0.4738,0.4684,0.4712,0.4713,0.4716,0.4447,0.4312,0.4509,0.4692,0.4689,0.4686,0.4683,0.4681,0,0.3343,0.343,0.3488,0.3571,0.3611,0.3702,0.3776,0.3882,0.3993,0.4115,0.4216,0.4322,0.4328,0.4396,0.4471,0.4488,0.4571,0.4476,0.4551,0.4554,0.4276,0.4383,0.4509,0.4642,0.4647,0.465,0.4653,0,0.3322,0.344,0.3458,0.3506,0.3582,0.3596,0.3711,0.38,0.3893,0.3999,0.4119,0.4212,0.4273,0.43,0.4305,0.4372,0.4506,0.4349,0.4349,0.438,0.4651,0.4369,0.4365,0.4487,0.4491,0.4495,0.4626,0,0.3337,0.3405,0.3436,0.3492,0.3525,0.3571,0.361,0.3696,0.3774,0.3815,0.3962,0.3991,0.4087,0.4101,0.409,0.423,0.4213,0.4165,0.4124,0.4239,0.4277,0.4299,0.4017,0.4016,0.4014,0.4013,0,0,0.3305,0.3351,0.3383,0.3418,0.3451,0.3477,0.3516,0.3553,0.3617,0.3689,0.3702,0.3839,0.3857,0.3949,0.4005,0.399,0.4023,0.4023,0.4175,0.4193,0.421,0.4253,0.4275,0.401,0.401,0.4009,0.4009,0,0.3272,0.3328,0.3374,0.3389,0.3441,0.3439,0.3466,0.35,0.3561,0.3634,0.3654,0.3738,0.3794,0.3832,0.3849,0.3958,0.3958,0.3983,0.41,0.416,0.4179,0.4197,0.4243,0.4264,0.4005,0.4005,0.4006,0,0.3235,0.3259,0.329,0.3317,0.3344,0.3362,0.3363,0.3421,0.3463,0.3457,0.357,0.3598,0.3618,0.3702,0.3748,0.3729,0.3902,0.3833,0.3842,0.3879,0.3938,0.3962,0.3982,0.3715,0.3714,0.3713,0,0,0.3213,0.3263,0.3262,0.3306,0.3324,0.3339,0.336,0.339,0.3421,0.3455,0.3498,0.3558,0.3592,0.3638,0.3666,0.3735,0.3752,0.3798,0.3812,0.3823,0.3865,0.3928,0.395,0.3709,0.3709,0.3709,0,0,0.319,0.3217,0.3242,0.3287,0.3297,0.3284,0.3334,0.3347,0.3408,0.3461,0.3463,0.3477,0.3571,0.3578,0.3528,0.368,0.3625,0.3634,0.3677,0.3693,0.3707,0.3749,0.3508,0,0,0,0,0,0.3169,0.3205,0.3227,0.3236,0.3269,0.3265,0.3269,0.3317,0.336,0.3388,0.3444,0.3443,0.3569,0.3524,0.3528,0.3603,0.3662,0.367,0.3678,0.3747,0.3765,0.3781,0,0,0,0,0,0,0.3172,0.318,0.3225,0.3211,0.322,0.3263,0.3286,0.3297,0.336,0.3372,0.343,0.3441,0.3441,0.3521,0.3525,0.3598,0.3507,0.3665,0.3672,0.3678,0.3754,0.3768,0.3781,0,0,0,0,0,0.3174,0.3181,0.3234,0.3211,0.3219,0.3274,0.3288,0.3299,0.3363,0.3373,0.3388,0.341,0.3438,0.3448,0.3523,0.3597,0.3504,0.3505,0.3669,0.3675,0.368,0.3761,0,0,0,0,0,0,0.3176,0.3178,0.3236,0.3239,0.3241,0.3275,0.3286,0.3299,0.3364,0.3377,0.3347,0.3355,0.3435,0.3443,0.345,0.3599,0.3502,0.3503,0.3504,0.3674,0.3678,0.3682,0,0,0,0,0,0,0.3175,0.318,0.3237,0.3271,0.3279,0.3276,0.3286,0.3291,0.3365,0.3334,0.3342,0.335,0.3444,0.3439,0.3445,0.3449,0.35,0.3501,0.3502,0.3503,0.3677,0.3681,0,0,0,0,0,0,0.3178,0.3182,0.3271,0.3276,0.3283,0.3316,0.3283,0.3328,0.3363,0.3331,0.3372,0.3375,0.344,0.3446,0.3441,0.3442,0.3447,0.35,0.3501,0.3502,0.3502,0,0,0,0,0,0,0,0.318,0.3146,0.3223,0.328,0.3286,0.3266,0.3266,0.3266,0.3364,0.3367,0.3371,0.3374,0.3492,0.3493,0.3495,0.3437,0,0,0.35,0.3501,0,0,0,0,0,0,0,0,0.3145,0.3146,0.3223,0.3223,0.3224,0.3266,0.3266,0.3266,0.3364,0.3367,0.337,0.3372,0.3492,0.3493,0.3495,0,0,0,0,0,0,0,0,0,0,0,0,0,0,0,0.3223,0.3223,0,0.3266,0.3266,0.3266,0.3365,0.3367,0.3369,0.3371,0.3492,0.3493,0.3495,0,0,0,0,0,0,0,0,0,0,0,0,0,0,0,0,0,0,0,0,0,0,0,0,0,0,0,0,0,0,0,0,0,0,0,0,0,0,0,0,0,0,0,0,0,0,0,0,0,0,0,0,0,0,0,0,0,0,0,0,0,0,0,0,0,0,0,0,0]}],[{"header":{"parameterUnit":"kt","parameterCategory":2,"dx":1,"dy":1,"la1":30.253999710083008,"la2":30.299108505249023,"lo1":-89.0895004272461,"lo2":-89.04439544677734,"nx":28,"ny":28,"refTime":"2022-09-29T21:00:00:Z","depth":"4","parameterNumber":3,"parameterNumberName":"V-component_of_CURRENTS"},"data":[0.1038,0.1162,0.1227,0.1422,0.1541,0.1724,0.1822,0.1862,0.1844,0.1839,0.1603,0.1493,0.1045,0.1308,0.0591,0.0495,0.0334,-0.0106,-0.0114,-0.0325,-0.0319,-0.0313,-0.0214,0,0,0,0,0,0.1016,0.1096,0.1233,0.1391,0.155,0.1649,0.1799,0.1855,0.1904,0.1867,0.1835,0.159,0.1119,0.0918,0.0599,0.0492,0.0076,0.0103,-0.007,-0.0321,-0.0314,-0.022,0,0,0,0,0,0,0.0986,0.1053,0.1176,0.132,0.1479,0.1621,0.1692,0.1775,0.1835,0.182,0.179,0.1502,0.1339,0.0863,0.055,0.0233,0.0146,0.0027,0.0015,0.0018,0.0142,0.0239,0.0168,0,0,0,0,0,0.0942,0.1002,0.1091,0.1253,0.1382,0.1522,0.1662,0.1715,0.1772,0.1771,0.1696,0.145,0.1187,0.0809,0.0465,0.015,-0.0083,-0.0193,-0.0191,-0.0186,-0.0144,-0.0176,-0.0161,-0.0287,-0.0286,-0.0285,-0.0285,0,0.0889,0.095,0.1097,0.1178,0.124,0.1376,0.1472,0.1526,0.1588,0.1579,0.1604,0.1414,0.1266,0.0797,0.0482,0.0043,-0.0023,-0.0172,-0.0165,-0.0131,-0.0168,-0.0154,-0.0141,-0.0279,-0.0279,-0.028,-0.028,0,0.0863,0.0906,0.1017,0.1122,0.1167,0.1259,0.1388,0.1451,0.1444,0.1484,0.1478,0.1318,0.109,0.0807,0.048,0.0284,0.002,-0.0079,0.007,0.0029,-0.0137,-0.0126,-0.0269,-0.0272,-0.0273,-0.0275,-0.0276,0,0.0817,0.089,0.0966,0.1018,0.1136,0.116,0.1264,0.1266,0.128,0.1316,0.1176,0.1157,0.0892,0.072,0.0496,0.0229,0.0233,0.0032,-0.0021,0.0094,0.0103,0.0032,0.0036,0.002,0.0021,0.0022,0.0023,0,0.0759,0.0841,0.092,0.0945,0.1012,0.1071,0.111,0.1102,0.1138,0.108,0.1073,0.094,0.0893,0.0696,0.0469,0.0466,0.0219,0.0185,0.0027,0.0024,0.0041,0.0042,0.0025,0.0025,0.0025,0.0026,0.0026,0,0.0706,0.075,0.0836,0.0915,0.0931,0.0976,0.1022,0.1045,0.1006,0.0974,0.0912,0.0835,0.0754,0.0679,0.0471,0.052,0.0378,0.0268,0.0258,0.0189,0.0137,0.0108,0.0131,0.0133,0.0134,0.0136,0.0137,0,0.0646,0.0719,0.0719,0.0799,0.0833,0.0815,0.0853,0.0846,0.0809,0.0802,0.0721,0.0705,0.0628,0.0617,0.054,0.042,0.0347,0.042,0.0186,0.0179,0.0153,0.0164,0.0326,0.0159,0.0156,0.0154,0.0153,0,0.0591,0.0627,0.0637,0.0674,0.0666,0.0684,0.0706,0.0707,0.0725,0.0672,0.0682,0.0629,0.0573,0.0547,0.0496,0.0432,0.0374,0.0367,0.0361,0.0297,0.0214,0.0192,0.0177,0.0333,0.0332,0.0331,0.0168,0,0.0551,0.0578,0.0593,0.0608,0.0613,0.0628,0.0604,0.0609,0.0582,0.055,0.0537,0.0477,0.0442,0.0425,0.0392,0.0372,0.0331,0.0298,0.0242,0.0282,0.0205,0.0194,0.0298,0.0296,0.0294,0.0293,0,0,0.0494,0.0521,0.0493,0.0516,0.0524,0.0467,0.0496,0.0482,0.0451,0.045,0.042,0.0365,0.032,0.0317,0.0334,0.0312,0.0255,0.0292,0.0275,0.0274,0.0272,0.0202,0.0193,0.0289,0.0289,0.0288,0.0288,0,0.0473,0.0464,0.0488,0.0484,0.0466,0.0442,0.0446,0.0411,0.0404,0.0403,0.0357,0.0331,0.0292,0.0263,0.0243,0.0291,0.0198,0.0281,0.0334,0.0263,0.0264,0.0265,0.0196,0.019,0.0284,0.0284,0.0284,0,0.043,0.042,0.0427,0.0414,0.0396,0.0404,0.0353,0.0347,0.036,0.0284,0.0292,0.0251,0.0203,0.0201,0.0194,0.0168,0.0139,0.0165,0.0173,0.0167,0.0089,0.0092,0.0094,0.0061,0.0061,0.0061,0,0,0.0412,0.0426,0.0393,0.0404,0.0397,0.0359,0.0351,0.0329,0.0303,0.0294,0.0255,0.0217,0.0195,0.0178,0.0148,0.0143,0.0079,0.0142,0.0152,0.0161,0.016,0.0086,0.0089,0.0059,0.0059,0.0059,0,0,0.0397,0.0375,0.0361,0.0372,0.0354,0.0312,0.0316,0.0292,0.0275,0.027,0.021,0.0197,0.0192,0.015,0.014,0.0127,0.0079,0.008,0.016,0.0172,0.0183,0.019,0.0069,0,0,0,0,0,0.036,0.0379,0.0368,0.0364,0.0334,0.032,0.0315,0.0282,0.0262,0.0271,0.024,0.0189,0.0138,0.0128,0.0115,0.0127,0.0041,0.0044,0.0047,0.0148,0.0162,0.0173,0,0,0,0,0,0,0.0358,0.0355,0.0366,0.0327,0.0319,0.0319,0.0279,0.0271,0.0261,0.0256,0.0199,0.0187,0.0144,0.0129,0.0119,0.0132,0.0073,0.0042,0.0045,0.0047,0.0153,0.0164,0.0173,0,0,0,0,0,0.0357,0.0354,0.0319,0.0326,0.0319,0.0278,0.0279,0.0272,0.0265,0.0201,0.019,0.0242,0.0146,0.0134,0.0123,0.0138,0.0079,0.0076,0.0044,0.0046,0.0048,0.0158,0,0,0,0,0,0,0.0355,0.0345,0.0317,0.0313,0.032,0.0277,0.0271,0.0272,0.0209,0.0199,0.024,0.0237,0.0147,0.0137,0.0128,0.0145,0.0085,0.0081,0.0079,0.0046,0.0047,0.0049,0,0,0,0,0,0,0.0346,0.0342,0.0315,0.031,0.0305,0.0277,0.0272,0.0237,0.0208,0.0252,0.0248,0.0239,0.0149,0.014,0.0133,0.0081,0.0089,0.0085,0.0083,0.0081,0.0047,0.0048,0,0,0,0,0,0,0.0343,0.034,0.0311,0.0307,0.0303,0.0256,0.0244,0.021,0.0224,0.0254,0.0222,0.0221,0.0152,0.0144,0.0136,0.0088,0.0083,0.0089,0.0086,0.0085,0.0083,0,0,0,0,0,0,0,0.0341,0.0376,0.0339,0.0305,0.0301,0.0275,0.0274,0.0273,0.0224,0.0223,0.0223,0.0222,0.0108,0.0105,0.0101,0.0093,0,0,0.0089,0.0087,0,0,0,0,0,0,0,0,0.0376,0.0376,0.0339,0.0338,0.0338,0.0275,0.0274,0.0273,0.0224,0.0223,0.0223,0.0222,0.0107,0.0104,0.0101,0,0,0,0,0,0,0,0,0,0,0,0,0,0,0,0.0339,0.0338,0,0.0275,0.0274,0.0273,0.0224,0.0223,0.0223,0.0222,0.0106,0.0104,0.0101,0,0,0,0,0,0,0,0,0,0,0,0,0,0,0,0,0,0,0,0,0,0,0,0,0,0,0,0,0,0,0,0,0,0,0,0,0,0,0,0,0,0,0,0,0,0,0,0,0,0,0,0,0,0,0,0,0,0,0,0,0,0,0,0,0,0,0,0,0]}]]]